Regional Weather Roundup
Issued by NWS

Home | Current Version | Previous Version | Graphics & Text | Print | Product List | Glossary On
Versions: 1 2 3 4 5 6 7 8 9 10 11 12 13 14 15 16 17 18 19 20 21 22 23 24 25 26 27 28 29 30 31 32 33 34 35 36 37 38 39 40 41 42 43 44 45 46 47 48 49 50
000
ASUS43 KFSD 231410
RWRSD

WEATHER ROUNDUP FOR SOUTH DAKOTA
NATIONAL WEATHER SERVICE SIOUX FALLS SD
900 AM CDT WED APR 23 2014

NOTE: "FAIR" INDICATES FEW OR NO CLOUDS BELOW 12,000 FEET WITH NO
SIGNIFICANT WEATHER AND/OR OBSTRUCTIONS TO VISIBILITY.


SDZ001>005-009-010-012>017-231500-
NORTHWEST AND NORTH CENTRAL SOUTH DAKOTA

CITY           SKY/WX    TMP DP  RH WIND       PRES   REMARKS
BUFFALO          N/A     55  42  61 S14       29.36R
MOBRIDGE       CLOUDY    51  37  58 SE35G45   29.55S
$$

SDZ012>016-024>037-041>051-057-063-072>074-231500-
SOUTHWEST AND SOUTH CENTRAL SOUTH DAKOTA

CITY           SKY/WX    TMP DP  RH WIND       PRES   REMARKS
RAPID CTY ARPT CLOUDY    56  45  66 E5        29.45R
PIERRE         CLOUDY    53  35  50 SE26      29.55S
CUSTER         LGT RAIN  52  32  46 W16G25    29.59R
ELLSWORTH AFB  CLOUDY    58  43  56 SW7       29.45R
PHILIP         CLOUDY    54  42  64 E13       29.46F
PINE RIDGE     CLOUDY    58  46  64 W8        29.52R
SPEARFISH      FAIR      61  36  39 W15G37    29.47R
WINNER         FAIR      57  35  43 SE22      29.55R
$$

SDZ004>011-016>023-039-040-231500-
NORTHEAST SOUTH DAKOTA

CITY           SKY/WX    TMP DP  RH WIND       PRES   REMARKS
ABERDEEN       LGT RAIN  49  38  65 SE22G31   29.76F
WATERTOWN      CLOUDY    46  38  73 SE17G30   29.84S
SISSETON         N/A     43  39  86 SE21      29.88F
$$

SDZ017-020-022-023-036>040-048>070-231500-
SOUTHEAST SOUTH DAKOTA

CITY           SKY/WX    TMP DP  RH WIND       PRES   REMARKS
SIOUX FALLS    CLOUDY    50  35  56 SE24G41   29.83F
HURON          CLOUDY    55  34  45 SE21G37   29.71F
CHAMBERLAIN      N/A     55  35  47 SE26G41   29.59F
MITCHELL       CLOUDY    54  36  50 SE32G53   29.70F
YANKTON        CLOUDY    54  36  50 SE23G33   29.78F
$$

ABBREVIATIONS USED IN REMARKS
   TC - TEMPERATURE IN CELSIUS
  WCI - WIND CHILL INDEX
   HX - HEAT INDEX
  VSB - VISIBILITY




USA.gov is the U.S. government's official web portal to all federal, state and local government web resources and services.